Terminal Aerodrome Forecast
Issued by NWS

Home | Current Version | Previous Version | Text Only | Print | Product List | Glossary Off
Versions: 1 2 3 4 5 6 7 8 9 10 11 12 13 14 15 16 17 18 19 20 21 22 23 24 25 26 27 28 29 30 31 32 33 34 35 36 37

000
FTUS45 KGGW 042300
TAFOLF
TAF
KOLF 042323Z 0500/0524 02020KT 5SM HZ SKC
     FM050900 02013KT P6SM -TSRA BKN070CB
     FM051200 01017KT P6SM -SHRA OVC080=

USA.gov is the U.S. government's official web portal to all federal, state and local government web resources and services.